Location: ?ejkovice
(49.0137°N, 14.3821°E)
Time: 17:05:37
(UTC+00:00)

Okean 2 - Pass Details

Date: 23 May 2024
Orbit: 540 x 553 km, 82.5° (Epoch: 13 June)

Event Time Altitude Azimuth Distance (km) Brightness Sun altitude
Exits shadow 00:50:29 32° 222° (SW) 953 4.0 -16.1°
Maximum altitude 00:52:03 53° 283° (WNW) 672 3.6 -16.0°
Drops below altitude 10° 00:55:57 10° 1° (N) 1,815 7.0 -15.7°
Sets 00:58:10 0° 6° (N) 2,714 8.2 -15.5°
